Time,TemperatureF,DewpointF,PressureIn,WindDirection,WindDirectionDegrees,WindSpeedMPH,WindSpeedGustMPH,Humidity,HourlyPrecipIn,Conditions,Clouds,dailyrainin,SoftwareType,DateUTC
2013-02-25 00:00:00,25.4,22.6,30.15,SE,145,0.0,0.0,89,0.00,,,0.00,Wunderground v.1.15,2013-02-25 06:00:00,
2013-02-25 00:10:00,24.8,22.0,30.15,SE,146,0.0,0.0,89,0.00,,,0.00,Wunderground v.1.15,2013-02-25 06:10:00,
2013-02-25 00:20:00,24.2,21.7,30.15,SE,145,0.0,0.0,90,0.00,,,0.00,Wunderground v.1.15,2013-02-25 06:20:00,
2013-02-25 00:25:00,24.0,21.5,30.14,SE,145,0.0,0.0,90,0.00,,,0.00,Wunderground v.1.15,2013-02-25 06:25:00,
2013-02-25 00:35:00,23.2,21.0,30.15,SE,145,0.0,0.0,91,0.00,,,0.00,Wunderground v.1.15,2013-02-25 06:35:00,
2013-02-25 00:40:00,23.4,21.2,30.14,SE,145,0.0,0.0,91,0.00,,,0.00,Wunderground v.1.15,2013-02-25 06:40:00,
2013-02-25 00:50:00,23.4,21.7,30.14,SE,145,0.0,0.0,93,0.00,,,0.00,Wunderground v.1.15,2013-02-25 06:50:00,
2013-02-25 00:55:00,23.8,22.1,30.14,SE,145,0.0,0.0,93,0.00,,,0.00,Wunderground v.1.15,2013-02-25 06:55:00,
2013-02-25 01:00:00,24.0,22.3,30.14,SE,145,0.0,0.0,93,0.00,,,0.00,Wunderground v.1.15,2013-02-25 07:00:00,
2013-02-25 01:10:00,24.0,22.3,30.14,SE,145,0.0,0.0,93,0.00,,,0.00,Wunderground v.1.15,2013-02-25 07:10:00,
2013-02-25 01:15:00,24.0,22.3,30.14,SE,146,0.0,0.0,93,0.00,,,0.00,Wunderground v.1.15,2013-02-25 07:15:00,
2013-02-25 01:25:00,23.9,22.2,30.14,ENE,76,0.0,0.0,93,0.00,,,0.00,Wunderground v.1.15,2013-02-25 07:25:00,
2013-02-25 01:30:00,24.0,22.3,30.14,ENE,77,0.0,0.0,93,0.00,,,0.00,Wunderground v.1.15,2013-02-25 07:30:00,
2013-02-25 01:40:00,24.0,22.0,30.14,ENE,77,0.0,0.0,92,0.00,,,0.00,Wunderground v.1.15,2013-02-25 07:40:00,
2013-02-25 01:45:00,24.0,22.0,30.14,ENE,77,0.0,0.0,92,0.00,,,0.00,Wunderground v.1.15,2013-02-25 07:45:00,
2013-02-25 01:55:00,24.0,22.0,30.14,ENE,72,0.0,0.0,92,0.00,,,0.00,Wunderground v.1.15,2013-02-25 07:55:00,
2013-02-25 02:00:00,24.0,22.0,30.14,ENE,77,0.0,0.0,92,0.00,,,0.00,Wunderground v.1.15,2013-02-25 08:00:00,
2013-02-25 02:10:00,23.4,21.4,30.14,ENE,76,0.0,0.0,92,0.00,,,0.00,Wunderground v.1.15,2013-02-25 08:10:00,
2013-02-25 02:15:00,23.0,21.0,30.14,ENE,76,0.0,0.0,92,0.00,,,0.00,Wunderground v.1.15,2013-02-25 08:15:00,
2013-02-25 02:25:00,22.2,20.2,30.14,ENE,76,0.0,0.0,92,0.00,,,0.00,Wunderground v.1.15,2013-02-25 08:25:00,
2013-02-25 02:30:00,21.9,19.9,30.14,ENE,76,0.0,0.0,92,0.00,,,0.00,Wunderground v.1.15,2013-02-25 08:30:00,
2013-02-25 02:40:00,22.7,21.2,30.13,ENE,76,0.0,0.0,94,0.00,,,0.00,Wunderground v.1.15,2013-02-25 08:40:00,
2013-02-25 02:45:00,23.1,21.6,30.13,ENE,77,0.0,0.0,94,0.00,,,0.00,Wunderground v.1.15,2013-02-25 08:45:00,
2013-02-25 02:55:00,23.2,21.5,30.14,ENE,76,0.0,0.0,93,0.00,,,0.00,Wunderground v.1.15,2013-02-25 08:55:00,
2013-02-25 03:00:00,23.0,21.3,30.14,ENE,76,0.0,0.0,93,0.00,,,0.00,Wunderground v.1.15,2013-02-25 09:00:00,
2013-02-25 03:10:00,22.6,20.9,30.14,ENE,76,0.0,0.0,93,0.00,,,0.00,Wunderground v.1.15,2013-02-25 09:10:00,
2013-02-25 03:15:00,22.5,20.8,30.14,East,79,0.0,0.0,93,0.00,,,0.00,Wunderground v.1.15,2013-02-25 09:15:00,
2013-02-25 03:25:00,22.3,20.8,30.13,SE,137,0.0,0.0,94,0.00,,,0.00,Wunderground v.1.15,2013-02-25 09:25:00,
2013-02-25 03:30:00,22.5,21.0,30.14,SE,127,0.0,0.0,94,0.00,,,0.00,Wunderground v.1.15,2013-02-25 09:30:00,
2013-02-25 03:40:00,22.9,21.4,30.14,SE,129,0.0,0.0,94,0.00,,,0.00,Wunderground v.1.15,2013-02-25 09:40:00,
2013-02-25 03:45:00,23.1,21.6,30.14,SE,136,0.0,0.0,94,0.00,,,0.00,Wunderground v.1.15,2013-02-25 09:45:00,
2013-02-25 03:55:00,22.9,21.4,30.13,SE,143,0.0,0.0,94,0.00,,,0.00,Wunderground v.1.15,2013-02-25 09:55:00,
2013-02-25 04:00:00,22.7,21.2,30.14,ESE,114,0.0,0.0,94,0.00,,,0.00,Wunderground v.1.15,2013-02-25 10:00:00,
2013-02-25 04:10:00,22.4,20.7,30.13,SE,131,0.0,0.0,93,0.00,,,0.00,Wunderground v.1.15,2013-02-25 10:10:00,
2013-02-25 04:15:00,22.3,20.8,30.13,SE,131,0.0,0.0,94,0.00,,,0.00,Wunderground v.1.15,2013-02-25 10:15:00,
2013-02-25 04:25:00,22.3,20.8,30.14,SE,131,0.0,0.0,94,0.00,,,0.00,Wunderground v.1.15,2013-02-25 10:25:00,
2013-02-25 04:30:00,22.6,21.1,30.14,ESE,117,0.0,0.0,94,0.00,,,0.00,Wunderground v.1.15,2013-02-25 10:30:00,
2013-02-25 04:40:00,22.4,20.9,30.15,NNE,27,0.0,0.0,94,0.00,,,0.00,Wunderground v.1.15,2013-02-25 10:40:00,
2013-02-25 04:45:00,22.2,20.7,30.14,NNE,27,0.0,0.0,94,0.00,,,0.00,Wunderground v.1.15,2013-02-25 10:45:00,
2013-02-25 04:55:00,22.2,20.7,30.14,NNE,33,0.0,0.0,94,0.00,,,0.00,Wunderground v.1.15,2013-02-25 10:55:00,
2013-02-25 05:00:00,22.2,20.7,30.15,NNE,33,0.0,0.0,94,0.00,,,0.00,Wunderground v.1.15,2013-02-25 11:00:00,
2013-02-25 05:10:00,21.4,19.4,30.17,West,262,0.0,0.0,92,0.00,,,0.00,Wunderground v.1.15,2013-02-25 11:10:00,
2013-02-25 05:20:00,20.4,18.7,30.16,West,262,0.0,0.0,93,0.00,,,0.00,Wunderground v.1.15,2013-02-25 11:20:00,
2013-02-25 05:30:00,20.6,19.1,30.16,West,262,0.0,0.0,94,0.00,,,0.00,Wunderground v.1.15,2013-02-25 11:30:00,
2013-02-25 05:35:00,20.4,18.9,30.17,West,262,0.0,0.0,94,0.00,,,0.00,Wunderground v.1.15,2013-02-25 11:35:00,
2013-02-25 05:45:00,20.1,18.7,30.17,West,262,0.0,0.0,94,0.00,,,0.00,Wunderground v.1.15,2013-02-25 11:45:00,
2013-02-25 05:50:00,19.7,18.3,30.17,West,262,0.0,0.0,94,0.00,,,0.00,Wunderground v.1.15,2013-02-25 11:50:00,
2013-02-25 06:00:00,19.6,18.2,30.17,West,262,0.0,0.0,94,0.00,,,0.00,Wunderground v.1.15,2013-02-25 12:00:00,
2013-02-25 06:05:00,20.1,18.9,30.16,ENE,68,0.0,0.0,95,0.00,,,0.00,Wunderground v.1.15,2013-02-25 12:05:00,
2013-02-25 06:15:00,20.4,19.2,30.16,ENE,68,0.0,0.0,95,0.00,,,0.00,Wunderground v.1.15,2013-02-25 12:15:00,
2013-02-25 06:25:00,20.4,18.9,30.15,ENE,68,0.0,0.0,94,0.00,,,0.00,Wunderground v.1.15,2013-02-25 12:25:00,
2013-02-25 06:35:00,20.9,19.7,30.15,East,93,0.0,0.0,95,0.00,,,0.00,Wunderground v.1.15,2013-02-25 12:35:00,
2013-02-25 06:45:00,21.3,19.8,30.15,East,91,0.0,0.0,94,0.00,,,0.00,Wunderground v.1.15,2013-02-25 12:45:00,
2013-02-25 06:55:00,21.8,20.6,30.14,SW,217,0.0,0.0,95,0.00,,,0.00,Wunderground v.1.15,2013-02-25 12:55:00,
2013-02-25 07:00:00,22.1,20.9,30.14,ENE,64,0.0,0.0,95,0.00,,,0.00,Wunderground v.1.15,2013-02-25 13:00:00,
2013-02-25 07:05:00,22.8,21.6,30.14,ENE,70,1.0,1.0,95,0.00,,,0.00,Wunderground v.1.15,2013-02-25 13:05:00,
2013-02-25 07:15:00,24.1,22.6,30.14,SSE,148,1.0,1.0,94,0.00,,,0.00,Wunderground v.1.15,2013-02-25 13:15:00,
2013-02-25 07:25:00,25.0,23.3,30.14,SSE,166,1.0,1.0,93,0.00,,,0.00,Wunderground v.1.15,2013-02-25 13:25:00,
2013-02-25 07:30:00,25.3,23.3,30.14,SE,145,1.0,1.0,92,0.00,,,0.00,Wunderground v.1.15,2013-02-25 13:30:00,
2013-02-25 07:40:00,25.7,23.4,30.14,ENE,67,1.0,2.0,91,0.00,,,0.00,Wunderground v.1.15,2013-02-25 13:40:00,
2013-02-25 07:50:00,26.0,23.7,30.14,ENE,68,2.0,2.0,91,0.00,,,0.00,Wunderground v.1.15,2013-02-25 13:50:00,
2013-02-25 08:00:00,26.5,24.2,30.14,ENE,66,1.0,1.0,91,0.00,,,0.00,Wunderground v.1.15,2013-02-25 14:00:00,
2013-02-25 08:10:00,27.0,24.7,30.14,NE,50,2.0,2.0,91,0.00,,,0.00,Wunderground v.1.15,2013-02-25 14:10:00,
2013-02-25 08:15:00,27.6,25.3,30.15,ENE,64,2.0,2.0,91,0.00,,,0.00,Wunderground v.1.15,2013-02-25 14:15:00,
2013-02-25 08:25:00,28.6,26.0,30.15,ENE,64,2.0,3.0,90,0.00,,,0.00,Wunderground v.1.15,2013-02-25 14:25:00,
2013-02-25 08:30:00,29.1,26.3,30.15,NE,50,1.0,2.0,89,0.00,,,0.00,Wunderground v.1.15,2013-02-25 14:30:00,
2013-02-25 08:40:00,30.0,26.6,30.15,NE,50,2.0,2.0,87,0.00,,,0.00,Wunderground v.1.15,2013-02-25 14:40:00,
2013-02-25 08:50:00,31.4,27.1,30.15,ENE,68,2.0,3.0,84,0.00,,,0.00,Wunderground v.1.15,2013-02-25 14:50:00,
2013-02-25 09:00:00,32.2,27.3,30.15,ENE,69,2.0,4.0,82,0.00,,,0.00,Wunderground v.1.15,2013-02-25 15:00:00,
2013-02-25 09:10:00,32.5,27.9,30.15,ENE,58,3.0,4.0,83,0.00,,,0.00,Wunderground v.1.15,2013-02-25 15:10:00,
2013-02-25 09:20:00,33.0,28.7,30.14,East,85,4.0,4.0,84,0.00,,,0.00,Wunderground v.1.15,2013-02-25 15:20:00,
2013-02-25 09:30:00,33.5,28.6,30.13,ENE,64,4.0,5.0,82,0.00,,,0.00,Wunderground v.1.15,2013-02-25 15:30:00,
2013-02-25 09:35:00,33.4,28.8,30.13,ENE,63,6.0,6.0,83,0.00,,,0.00,Wunderground v.1.15,2013-02-25 15:35:00,
2013-02-25 09:45:00,33.8,28.6,30.13,ENE,71,6.0,8.0,81,0.00,,,0.00,Wunderground v.1.15,2013-02-25 15:45:00,
2013-02-25 09:50:00,33.9,28.7,30.13,ENE,64,6.0,6.0,81,0.00,,,0.00,Wunderground v.1.15,2013-02-25 15:50:00,
2013-02-25 10:00:00,35.0,29.1,30.12,ENE,71,4.0,6.0,79,0.00,,,0.00,Wunderground v.1.15,2013-02-25 16:00:00,
2013-02-25 10:05:00,35.3,29.1,30.12,SE,129,3.0,6.0,78,0.00,,,0.00,Wunderground v.1.15,2013-02-25 16:05:00,
2013-02-25 10:15:00,36.1,29.6,30.13,ENE,58,3.0,4.0,77,0.00,,,0.00,Wunderground v.1.15,2013-02-25 16:15:00,
2013-02-25 10:20:00,36.4,29.6,30.13,SSE,147,3.0,3.0,76,0.00,,,0.00,Wunderground v.1.15,2013-02-25 16:20:00,
2013-02-25 10:30:00,36.7,29.8,30.13,SW,236,3.0,3.0,76,0.00,,,0.01,Wunderground v.1.15,2013-02-25 16:30:00,
2013-02-25 10:40:00,37.0,30.5,30.13,ENE,67,3.0,5.0,77,0.00,,,0.01,Wunderground v.1.15,2013-02-25 16:40:00,
2013-02-25 10:45:00,37.3,30.1,30.13,ENE,60,4.0,7.0,75,0.00,,,0.01,Wunderground v.1.15,2013-02-25 16:45:00,
2013-02-25 10:55:00,38.3,30.7,30.14,NNE,16,2.0,3.0,74,0.00,,,0.01,Wunderground v.1.15,2013-02-25 16:55:00,
2013-02-25 11:00:00,38.4,31.2,30.14,ENE,65,2.0,3.0,75,0.00,,,0.01,Wunderground v.1.15,2013-02-25 17:00:00,
2013-02-25 11:10:00,39.0,30.7,30.14,SE,138,2.0,2.0,72,0.00,,,0.01,Wunderground v.1.15,2013-02-25 17:10:00,
2013-02-25 11:20:00,38.1,30.2,30.13,ENE,63,4.0,4.0,73,0.00,,,0.01,Wunderground v.1.15,2013-02-25 17:20:00,
2013-02-25 11:30:00,38.9,31.3,30.13,ENE,74,3.0,3.0,74,0.00,,,0.01,Wunderground v.1.15,2013-02-25 17:30:00,
2013-02-25 11:40:00,38.5,30.9,30.13,SE,142,5.0,5.0,74,0.00,,,0.01,Wunderground v.1.15,2013-02-25 17:40:00,
2013-02-25 11:50:00,38.4,30.8,30.13,NE,51,5.0,5.0,74,0.00,,,0.01,Wunderground v.1.15,2013-02-25 17:50:00,
2013-02-25 12:00:00,38.9,31.3,30.13,ENE,60,5.0,5.0,74,0.00,,,0.01,Wunderground v.1.15,2013-02-25 18:00:00,
2013-02-25 12:10:00,39.9,31.6,30.11,ENE,67,3.0,3.0,72,0.00,,,0.01,Wunderground v.1.15,2013-02-25 18:10:00,
2013-02-25 12:20:00,40.4,32.8,30.10,SE,133,4.0,4.0,74,0.00,,,0.01,Wunderground v.1.15,2013-02-25 18:20:00,
2013-02-25 12:25:00,40.6,31.9,30.10,SSE,153,3.0,5.0,71,0.00,,,0.01,Wunderground v.1.15,2013-02-25 18:25:00,
2013-02-25 12:35:00,40.5,31.8,30.10,NNW,328,4.0,4.0,71,0.00,,,0.01,Wunderground v.1.15,2013-02-25 18:35:00,
2013-02-25 12:40:00,40.9,31.1,30.10,SSE,156,3.0,3.0,68,0.00,,,0.01,Wunderground v.1.15,2013-02-25 18:40:00,
2013-02-25 12:50:00,41.5,32.4,30.10,SE,134,2.0,2.0,70,0.00,,,0.01,Wunderground v.1.15,2013-02-25 18:50:00,
2013-02-25 12:55:00,42.0,32.2,30.09,SE,137,2.0,2.0,68,0.00,,,0.01,Wunderground v.1.15,2013-02-25 18:55:00,
2013-02-25 13:00:00,42.2,32.4,30.09,ENE,63,2.0,2.0,68,0.00,,,0.01,Wunderground v.1.15,2013-02-25 19:00:00,
2013-02-25 13:10:00,41.6,31.8,30.08,SE,136,3.0,3.0,68,0.00,,,0.01,Wunderground v.1.15,2013-02-25 19:10:00,
2013-02-25 13:20:00,40.7,32.0,30.08,ENE,71,4.0,6.0,71,0.00,,,0.02,Wunderground v.1.15,2013-02-25 19:20:00,
2013-02-25 13:25:00,40.5,32.2,30.07,ENE,60,6.0,7.0,72,0.00,,,0.02,Wunderground v.1.15,2013-02-25 19:25:00,
2013-02-25 13:35:00,40.3,31.6,30.07,NE,49,5.0,5.0,71,0.00,,,0.02,Wunderground v.1.15,2013-02-25 19:35:00,
2013-02-25 13:40:00,41.0,31.6,30.07,SSE,147,3.0,5.0,69,0.00,,,0.02,Wunderground v.1.15,2013-02-25 19:40:00,
2013-02-25 13:50:00,40.4,32.4,30.07,ENE,74,6.0,6.0,73,0.00,,,0.02,Wunderground v.1.15,2013-02-25 19:50:00,
2013-02-25 13:55:00,40.9,31.5,30.07,SE,145,5.0,6.0,69,0.00,,,0.02,Wunderground v.1.15,2013-02-25 19:55:00,
2013-02-25 14:00:00,40.9,32.6,30.07,ENE,58,3.0,5.0,72,0.00,,,0.02,Wunderground v.1.15,2013-02-25 20:00:00,
2013-02-25 14:10:00,40.4,31.7,30.07,ENE,70,4.0,4.0,71,0.00,,,0.02,Wunderground v.1.15,2013-02-25 20:10:00,
2013-02-25 14:20:00,39.7,32.4,30.07,East,85,6.0,6.0,75,0.00,,,0.02,Wunderground v.1.15,2013-02-25 20:20:00,
2013-02-25 14:30:00,40.0,32.7,30.08,ENE,63,5.0,5.0,75,0.00,,,0.02,Wunderground v.1.15,2013-02-25 20:30:00,
2013-02-25 14:40:00,40.4,32.8,30.08,ENE,74,4.0,4.0,74,0.00,,,0.02,Wunderground v.1.15,2013-02-25 20:40:00,
2013-02-25 14:45:00,40.0,32.7,30.07,NE,49,6.0,7.0,75,0.00,,,0.02,Wunderground v.1.15,2013-02-25 20:45:00,
2013-02-25 14:55:00,40.1,32.5,30.07,NE,54,6.0,7.0,74,0.00,,,0.02,Wunderground v.1.15,2013-02-25 20:55:00,
2013-02-25 15:00:00,40.4,32.8,30.06,NE,49,5.0,8.0,74,0.00,,,0.02,Wunderground v.1.15,2013-02-25 21:00:00,
2013-02-25 15:10:00,40.0,33.0,30.05,ENE,58,7.0,7.0,76,0.00,,,0.02,Wunderground v.1.15,2013-02-25 21:10:00,
2013-02-25 15:15:00,39.8,32.5,30.05,ENE,58,7.0,7.0,75,0.00,,,0.02,Wunderground v.1.15,2013-02-25 21:15:00,
2013-02-25 15:25:00,39.6,32.7,30.04,ENE,71,6.0,6.0,76,0.00,,,0.02,Wunderground v.1.15,2013-02-25 21:25:00,
2013-02-25 15:30:00,39.5,32.6,30.04,NE,56,6.0,6.0,76,0.00,,,0.02,Wunderground v.1.15,2013-02-25 21:30:00,
2013-02-25 15:40:00,39.2,31.9,30.04,ENE,76,7.0,12.0,75,0.00,,,0.02,Wunderground v.1.15,2013-02-25 21:40:00,
2013-02-25 15:45:00,39.3,31.0,30.03,ENE,68,6.0,12.0,72,0.00,,,0.02,Wunderground v.1.15,2013-02-25 21:45:00,
2013-02-25 15:55:00,39.3,30.7,30.03,ESE,111,5.0,8.0,71,0.00,,,0.02,Wunderground v.1.15,2013-02-25 21:55:00,
2013-02-25 16:00:00,39.2,31.3,30.03,ENE,68,5.0,5.0,73,0.00,,,0.02,Wunderground v.1.15,2013-02-25 22:00:00,
2013-02-25 16:10:00,38.7,31.8,30.03,ENE,65,4.0,4.0,76,0.00,,,0.02,Wunderground v.1.15,2013-02-25 22:10:00,
2013-02-25 16:15:00,38.3,32.4,30.02,ENE,71,5.0,6.0,79,0.00,,,0.02,Wunderground v.1.15,2013-02-25 22:15:00,
2013-02-25 16:25:00,38.0,32.7,30.02,ENE,65,5.0,5.0,81,0.00,,,0.02,Wunderground v.1.15,2013-02-25 22:25:00,
2013-02-25 16:35:00,37.7,32.7,30.02,ENE,65,5.0,5.0,82,0.00,,,0.02,Wunderground v.1.15,2013-02-25 22:35:00,
2013-02-25 16:45:00,37.4,32.4,30.02,ENE,58,4.0,5.0,82,0.00,,,0.02,Wunderground v.1.15,2013-02-25 22:45:00,
2013-02-25 16:55:00,37.1,32.1,30.02,ENE,63,4.0,5.0,82,0.00,,,0.02,Wunderground v.1.15,2013-02-25 22:55:00,
2013-02-25 17:00:00,36.8,31.8,30.01,ENE,61,4.0,5.0,82,0.00,,,0.02,Wunderground v.1.15,2013-02-25 23:00:00,
2013-02-25 17:10:00,36.4,31.7,30.01,NE,46,4.0,4.0,83,0.00,,,0.02,Wunderground v.1.15,2013-02-25 23:10:00,
2013-02-25 17:20:00,36.1,31.4,30.01,ENE,64,5.0,5.0,83,0.00,,,0.02,Wunderground v.1.15,2013-02-25 23:20:00,
2013-02-25 17:30:00,35.7,31.3,30.01,ENE,60,4.0,4.0,84,0.00,,,0.02,Wunderground v.1.15,2013-02-25 23:30:00,
2013-02-25 17:40:00,35.5,30.8,30.00,ENE,58,5.0,5.0,83,0.00,,,0.02,Wunderground v.1.15,2013-02-25 23:40:00,
2013-02-25 17:50:00,35.3,30.7,30.00,ENE,68,5.0,6.0,83,0.00,,,0.02,Wunderground v.1.15,2013-02-25 23:50:00,
2013-02-25 18:00:00,35.2,30.3,30.01,ENE,69,3.0,4.0,82,0.00,,,0.02,Wunderground v.1.15,2013-02-26 00:00:00,
2013-02-25 18:05:00,35.0,30.4,30.00,ENE,64,4.0,6.0,83,0.00,,,0.02,Wunderground v.1.15,2013-02-26 00:05:00,
2013-02-25 18:15:00,34.3,30.0,29.99,ENE,72,6.0,6.0,84,0.00,,,0.02,Wunderground v.1.15,2013-02-26 00:15:00,
2013-02-25 18:20:00,34.2,29.9,30.00,East,80,4.0,4.0,84,0.00,,,0.02,Wunderground v.1.15,2013-02-26 00:20:00,
2013-02-25 18:30:00,33.8,29.8,29.99,ENE,66,3.0,4.0,85,0.00,,,0.02,Wunderground v.1.15,2013-02-26 00:30:00,
2013-02-25 18:35:00,33.7,29.7,29.99,ENE,63,3.0,4.0,85,0.00,,,0.02,Wunderground v.1.15,2013-02-26 00:35:00,
2013-02-25 18:45:00,33.6,29.9,29.98,ENE,65,3.0,5.0,86,0.00,,,0.02,Wunderground v.1.15,2013-02-26 00:45:00,
2013-02-25 18:50:00,33.7,29.7,29.99,ENE,71,4.0,4.0,85,0.00,,,0.02,Wunderground v.1.15,2013-02-26 00:50:00,
2013-02-25 19:00:00,33.7,30.0,29.98,ENE,57,3.0,6.0,86,0.00,,,0.02,Wunderground v.1.15,2013-02-26 01:00:00,
2013-02-25 19:05:00,33.9,29.9,29.98,NE,41,4.0,6.0,85,0.00,,,0.02,Wunderground v.1.15,2013-02-26 01:05:00,
2013-02-25 19:15:00,34.3,30.0,29.98,ENE,63,5.0,5.0,84,0.00,,,0.02,Wunderground v.1.15,2013-02-26 01:15:00,
2013-02-25 19:20:00,34.3,30.0,29.98,ENE,60,5.0,7.0,84,0.00,,,0.02,Wunderground v.1.15,2013-02-26 01:20:00,
2013-02-25 19:30:00,34.5,29.9,29.98,ENE,67,6.0,7.0,83,0.00,,,0.02,Wunderground v.1.15,2013-02-26 01:30:00,
2013-02-25 19:35:00,34.6,29.7,29.99,ENE,76,5.0,7.0,82,0.00,,,0.02,Wunderground v.1.15,2013-02-26 01:35:00,
2013-02-25 19:45:00,34.9,29.7,29.98,ENE,58,5.0,8.0,81,0.00,,,0.02,Wunderground v.1.15,2013-02-26 01:45:00,
2013-02-25 19:55:00,34.3,29.7,29.99,ENE,60,7.0,8.0,83,0.00,,,0.02,Wunderground v.1.15,2013-02-26 01:55:00,
2013-02-25 20:00:00,34.0,29.7,29.98,ENE,58,6.0,9.0,84,0.00,,,0.02,Wunderground v.1.15,2013-02-26 02:00:00,
2013-02-25 20:10:00,33.9,29.6,29.98,NE,56,8.0,8.0,84,0.00,,,0.02,Wunderground v.1.15,2013-02-26 02:10:00,
2013-02-25 20:20:00,33.8,29.2,29.99,ENE,71,7.0,7.0,83,0.00,,,0.02,Wunderground v.1.15,2013-02-26 02:20:00,
2013-02-25 20:25:00,33.7,29.4,29.99,ENE,63,6.0,7.0,84,0.00,,,0.02,Wunderground v.1.15,2013-02-26 02:25:00,
2013-02-25 20:35:00,33.7,29.4,29.99,ENE,60,6.0,6.0,84,0.00,,,0.02,Wunderground v.1.15,2013-02-26 02:35:00,
2013-02-25 20:40:00,33.6,29.3,29.99,ENE,70,7.0,8.0,84,0.00,,,0.02,Wunderground v.1.15,2013-02-26 02:40:00,
2013-02-25 20:50:00,33.8,29.2,29.99,ENE,62,7.0,7.0,83,0.00,,,0.02,Wunderground v.1.15,2013-02-26 02:50:00,
2013-02-25 20:55:00,33.7,29.1,29.99,ENE,68,7.0,9.0,83,0.00,,,0.02,Wunderground v.1.15,2013-02-26 02:55:00,
2013-02-25 21:00:00,33.8,29.2,29.99,ENE,60,7.0,7.0,83,0.00,,,0.02,Wunderground v.1.15,2013-02-26 03:00:00,
2013-02-25 21:10:00,33.7,29.1,29.99,ENE,75,7.0,10.0,83,0.00,,,0.02,Wunderground v.1.15,2013-02-26 03:10:00,
2013-02-25 21:15:00,33.6,29.3,29.99,ENE,71,8.0,10.0,84,0.00,,,0.02,Wunderground v.1.15,2013-02-26 03:15:00,
2013-02-25 21:25:00,33.7,29.1,29.99,NE,42,7.0,9.0,83,0.00,,,0.02,Wunderground v.1.15,2013-02-26 03:25:00,
2013-02-25 21:30:00,33.8,29.2,30.00,ENE,64,8.0,8.0,83,0.00,,,0.02,Wunderground v.1.15,2013-02-26 03:30:00,
2013-02-25 21:40:00,33.7,29.4,30.00,ENE,63,7.0,7.0,84,0.00,,,0.02,Wunderground v.1.15,2013-02-26 03:40:00,
2013-02-25 21:45:00,33.5,29.2,30.00,ENE,62,7.0,7.0,84,0.00,,,0.02,Wunderground v.1.15,2013-02-26 03:45:00,
2013-02-25 21:55:00,33.5,29.5,30.00,ENE,65,8.0,8.0,85,0.00,,,0.02,Wunderground v.1.15,2013-02-26 03:55:00,
2013-02-25 22:00:00,33.6,29.3,29.98,ENE,63,8.0,9.0,84,0.00,,,0.02,Wunderground v.1.15,2013-02-26 04:00:00,
2013-02-25 22:10:00,33.9,29.6,29.98,ENE,63,10.0,10.0,84,0.00,,,0.02,Wunderground v.1.15,2013-02-26 04:10:00,
2013-02-25 22:20:00,33.7,29.7,29.97,ENE,63,10.0,10.0,85,0.00,,,0.02,Wunderground v.1.15,2013-02-26 04:20:00,
2013-02-25 22:30:00,33.8,29.5,29.96,ENE,61,10.0,15.0,84,0.00,,,0.02,Wunderground v.1.15,2013-02-26 04:30:00,
2013-02-25 22:35:00,33.9,29.6,29.96,ENE,66,11.0,15.0,84,0.00,,,0.02,Wunderground v.1.15,2013-02-26 04:35:00,
2013-02-25 22:45:00,33.9,29.6,29.95,ENE,63,9.0,10.0,84,0.00,,,0.02,Wunderground v.1.15,2013-02-26 04:45:00,
2013-02-25 22:50:00,33.9,29.6,29.95,ENE,62,9.0,9.0,84,0.00,,,0.02,Wunderground v.1.15,2013-02-26 04:50:00,
2013-02-25 23:00:00,33.8,29.5,29.94,ENE,60,11.0,12.0,84,0.00,,,0.02,Wunderground v.1.15,2013-02-26 05:00:00,
2013-02-25 23:05:00,33.8,29.5,29.94,ENE,58,11.0,12.0,84,0.00,,,0.00,Wunderground v.1.15,2013-02-26 05:05:00,
2013-02-25 23:10:00,33.9,29.6,29.93,ENE,68,11.0,11.0,84,0.00,,,0.00,Wunderground v.1.15,2013-02-26 05:10:00,
2013-02-25 23:20:00,33.9,29.3,29.93,ENE,66,11.0,11.0,83,0.00,,,0.00,Wunderground v.1.15,2013-02-26 05:20:00,
2013-02-25 23:25:00,33.8,29.5,29.92,NE,49,11.0,11.0,84,0.00,,,0.00,Wunderground v.1.15,2013-02-26 05:25:00,
2013-02-25 23:35:00,33.8,29.5,29.91,ENE,64,12.0,13.0,84,0.00,,,0.00,Wunderground v.1.15,2013-02-26 05:35:00,
2013-02-25 23:45:00,33.7,29.4,29.91,ENE,68,11.0,12.0,84,0.00,,,0.00,Wunderground v.1.15,2013-02-26 05:45:00,
2013-02-25 23:55:00,33.7,29.4,29.90,ENE,57,11.0,13.0,84,0.00,,,0.00,Wunderground v.1.15,2013-02-26 05:55:00,